User: anonymous   Login
Location: Unspecified
(0.0000°N, 0.0000°E)
Time: 20:14:22
(UTC+00:00)
Language:

TEN-KOH - Orbit

View from above orbital plane
View from above orbital plane
View from above satellite
View from above satellite

Ground track
Ground track

The orbit data is extracted from the following two-line orbital elements,

1 43677U 18084G   21019.74909552  .00000251  00000-0  31608-4 0  9992
2 43677  97.9023 142.6026 0016504 160.6295 199.5553 14.90387356121158
Epoch (UTC): 19 January 2021 17:58:41
Eccentricity: 0.0016504
inclination: 97.9023°
perigee height: 585 km
apogee height: 608 km
right ascension of ascending node: 142.6026°
argument of perigee: 160.6295°
revolutions per day: 14.90387356
mean anomaly at epoch: 199.5553°
orbit number at epoch: 12115

The dashed part of the orbit path shows where the satellite is in the earth's shadow,  

DLR